Location: Mountain Grove
(34.0887°N, 86.6172°W)
Time: 14:58:26
(UTC+00:00)

DELTA 2 R/B (1) - Pass Details

Date: 14 July 2020
Orbit: 790 x 803 km, 39.6° (Epoch: 12 August)

Event Time Altitude Azimuth Distance (km) Brightness Sun altitude
Rises 02:45:03 0° 284° (WNW) 3,281 7.8 -18.7°
Reaches altitude 10° 02:47:37 10° 290° (WNW) 2,353 7.0 -19.1°
Maximum altitude 02:52:59 49° 5° (N) 1,021 4.4 -19.8°
Enters shadow 02:57:14 16° 75° (ENE) 1,965 5.3 -20.4°
